カタログに戻る

STARLINK-37209

運用中通信VLEO
NORAD 69187·PAYLOAD·🇺🇸 United States

打ち上げ May 25, 2026 から Cape Canaveral Space Force Station

Loading…

次のパス (今後24時間)

TLE

最新Source: CelesTrak SupGP

元期: Sep 14, 2026, 21:04 UTC

1 69187C 26114F   26257.87826389 -.00000254  00000+0 -74945-5 0  2571
2 69187  53.1560 140.2388 0001322  83.8736 144.2142 15.34426664    12

AllMySatでSTARLINK-37209をリアルタイム追跡

Download on the App Store